Location: ?????? ??????
(44.3742°N, 135.2221°E)
Time: 01:33:28
(UTC+00:00)

Cosmos 1697 Rocket - Pass Details

Date: 19 May 2025
Orbit: 830 x 844 km, 71.0° (Epoch: 13 June)

Event Time Altitude Azimuth Distance (km) Brightness Sun altitude
Rises 12:50:29 0° 330° (NNW) 3,406 7.5 -19.7°
Reaches altitude 10° 12:52:58 10° 326° (NNW) 2,468 6.4 -19.9°
Maximum altitude 12:58:28 55° 251° (WSW) 1,011 3.1 -20.4°
Enters shadow 13:00:51 32° 190° (S) 1,401 3.4 -20.6°
